Weather History for KAVP - March, 2014

Change the Weather History Date:

Saturday, March 29, 2014

  Actual Average Record
Temperature  
Mean Temperature 43 °F 42 °F  
Max Temperature 48 °F 52 °F 84 °F (1905)
Min Temperature 37 °F 32 °F 7 °F (1923)
Degree Days  
Heating Degree Days 22 23  
Month to date heating degree days 991 826  
Since 1 July heating degree days 5814 5432  
Cooling Degree Days 0 0  
Month to date cooling degree days 0 0  
Year to date cooling degree days 0 0  
Moisture  
Dew Point 39 °F    
Average Humidity 80    
Maximum Humidity 89    
Minimum Humidity 70    
Precipitation  
Precipitation 0.49 in 0.09 in 0.82 in (1984)
Month to date precipitation 1.09 2.36  
Year to date precipitation 5.97 6.76  
Sea Level Pressure  
Sea Level Pressure 29.98 in    
Wind  
Wind Speed 8 mph (ENE)    
Max Wind Speed 20 mph    
Max Gust Speed 25 mph    
Visibility 8 miles    
Events Rain    
T = Trace of Precipitation, MM = Missing Value Source: NWS Daily Summary

Daily Weather History Graph

Daily Weather History Graph

Search for Another Location

Airport or City:

Trip Planner

Search our weather history database for the weather conditions in past years. The results will help you decide how hot, cold, wet, or windy it might be!

Date:

Astronomy

Mar. 29, 2014 Rise Set
Actual Time 6:51 AM EDT 7:24 PM EDT
Civil Twilight 6:23 AM EDT 7:52 PM EDT
Nautical Twilight 5:50 AM EDT 8:25 PM EDT
Astronomical Twilight 5:16 AM EDT 8:59 PM EDT
Moon 5:59 AM EDT (3/29) 6:26 PM EDT (3/29)
Length of Visible Light 13h 29m
Length of Day
12h 33m
Waning Crescent, 2% of the Moon is Illuminated
Mar 29
Waning Crescent
Mar 30
New
Apr 7
First Quarter
Apr 15
Full
Apr 22
Last Quarter

Hourly Weather History & Observations

Time (EDT) Temp. Windchill Dew Point Humidity Pressure Visibility Wind Dir Wind Speed Gust Speed Precip Events Conditions
12:36 AM 48.2 °F - 39.2 °F 71% 30.13 in 10.0 mi North 3.5 mph - N/A   Overcast
12:54 AM 46.9 °F - 39.0 °F 74% 30.15 in 10.0 mi NNW 5.8 mph - N/A   Overcast
1:54 AM 46.0 °F 42.5 °F 37.9 °F 73% 30.16 in 10.0 mi North 6.9 mph - N/A   Scattered Clouds
2:54 AM 43.0 °F 41.3 °F 37.0 °F 80% 30.14 in 10.0 mi Variable 3.5 mph - N/A   Clear
3:54 AM 41.0 °F 37.1 °F 36.0 °F 82% 30.11 in 10.0 mi NNE 5.8 mph - N/A   Clear
4:54 AM 39.9 °F 37.8 °F 35.1 °F 83% 30.14 in 10.0 mi ENE 3.5 mph - N/A   Clear
5:13 AM 39.2 °F 35.9 °F 35.6 °F 87% 30.13 in 10.0 mi Variable 4.6 mph - N/A   Mostly Cloudy
5:54 AM 39.9 °F 36.7 °F 35.1 °F 83% 30.14 in 10.0 mi ENE 4.6 mph - N/A   Overcast
6:18 AM 39.2 °F 35.0 °F 35.6 °F 87% 30.15 in 10.0 mi NE 5.8 mph - N/A   Scattered Clouds
6:46 AM 37.4 °F 34.9 °F 35.6 °F 93% 30.15 in 10.0 mi ENE 3.5 mph - N/A   Mostly Cloudy
6:54 AM 37.0 °F 34.5 °F 34.0 °F 89% 30.17 in 10.0 mi Variable 3.5 mph - N/A   Overcast
7:54 AM 39.9 °F 37.8 °F 35.1 °F 83% 30.17 in 9.0 mi NE 3.5 mph - N/A   Overcast
8:54 AM 39.9 °F 36.7 °F 35.1 °F 83% 30.18 in 9.0 mi NNE 4.6 mph - N/A   Overcast
9:54 AM 41.0 °F 36.4 °F 36.0 °F 82% 30.17 in 7.0 mi NNE 6.9 mph - N/A   Overcast
10:54 AM 44.1 °F - 36.0 °F 73% 30.14 in 9.0 mi Calm Calm - N/A   Overcast
11:54 AM 46.9 °F - 37.0 °F 68% 30.11 in 10.0 mi ENE 6.9 mph - N/A   Overcast
12:54 PM 48.0 °F - 37.9 °F 68% 30.07 in 10.0 mi NE 5.8 mph - 0.00 in Rain Light Rain
1:54 PM 46.0 °F 41.4 °F 39.0 °F 76% 30.04 in 4.0 mi ENE 9.2 mph 17.3 mph 0.00 in Rain Light Rain
2:12 PM 44.6 °F 40.2 °F 39.2 °F 81% 30.02 in 1.8 mi ENE 8.1 mph - 0.00 in Rain Light Rain
2:40 PM 44.6 °F 42.2 °F 41.0 °F 87% 30.00 in 3.0 mi Variable 4.6 mph - 0.03 in Rain Light Rain
2:54 PM 45.0 °F 41.2 °F 41.0 °F 86% 30.01 in 3.0 mi Variable 6.9 mph - 0.03 in Rain Light Rain
3:21 PM 44.6 °F 38.8 °F 41.0 °F 87% 29.98 in 2.5 mi ENE 11.5 mph 18.4 mph 0.00 in Rain Light Rain
3:35 PM 44.6 °F 39.7 °F 39.2 °F 81% 29.98 in 3.0 mi ENE 9.2 mph 17.3 mph 0.00 in   Overcast
3:40 PM 44.6 °F 40.7 °F 41.0 °F 87% 29.97 in 2.5 mi Variable 6.9 mph - 0.00 in Rain Light Rain
3:46 PM 44.6 °F 40.2 °F 41.0 °F 87% 29.97 in 3.0 mi East 8.1 mph 16.1 mph 0.00 in Rain Light Rain
3:54 PM 44.1 °F 39.5 °F 41.0 °F 89% 29.97 in 3.0 mi East 8.1 mph 16.1 mph 0.00 in Rain Light Rain
4:12 PM 44.6 °F 38.4 °F 41.0 °F 87% 29.93 in 8.0 mi ENE 12.7 mph - 0.01 in Rain Light Rain
4:35 PM 44.6 °F 38.8 °F 39.2 °F 81% 29.92 in 7.0 mi East 11.5 mph 20.7 mph 0.02 in Rain Light Rain
4:54 PM 45.0 °F 38.9 °F 39.9 °F 82% 29.91 in 10.0 mi ENE 12.7 mph 23.0 mph 0.02 in Rain Light Rain
5:54 PM 44.1 °F 38.6 °F 39.9 °F 85% 29.88 in 7.0 mi NE 10.4 mph 19.6 mph 0.08 in Rain Light Rain
6:23 PM 44.6 °F 38.8 °F 39.2 °F 81% 29.84 in 2.5 mi ENE 11.5 mph 16.1 mph 0.03 in Rain Rain
6:33 PM 44.6 °F 40.2 °F 39.2 °F 81% 29.84 in 3.0 mi East 8.1 mph 18.4 mph 0.05 in Rain Rain
6:54 PM 44.1 °F 37.1 °F 39.9 °F 85% 29.84 in 4.0 mi ENE 15.0 mph 21.9 mph 0.09 in Rain Light Rain
7:54 PM 44.1 °F 37.4 °F 41.0 °F 89% 29.80 in 10.0 mi ENE 13.8 mph 23.0 mph 0.03 in Rain Light Rain
8:54 PM 45.0 °F 39.7 °F 41.0 °F 86% 29.76 in 10.0 mi ENE 10.4 mph 24.2 mph 0.00 in   Overcast
9:24 PM 44.6 °F 39.7 °F 41.0 °F 87% 29.73 in 8.0 mi ENE 9.2 mph 19.6 mph 0.01 in Rain Light Rain
9:54 PM 46.0 °F 41.0 °F 42.1 °F 86% 29.72 in 10.0 mi East 10.4 mph 25.3 mph 0.01 in   Overcast
10:35 PM 46.4 °F 41.9 °F 42.8 °F 87% 29.68 in 10.0 mi East 9.2 mph 17.3 mph N/A   Overcast
10:54 PM 46.0 °F 39.9 °F 42.1 °F 86% 29.68 in 10.0 mi ENE 13.8 mph 19.6 mph N/A   Overcast
11:11 PM 46.4 °F 41.9 °F 42.8 °F 87% 29.64 in 4.0 mi East 9.2 mph 18.4 mph 0.00 in Rain Light Rain
11:54 PM 46.0 °F 41.4 °F 42.1 °F 86% 29.62 in 6.0 mi ENE 9.2 mph 20.7 mph 0.02 in Rain Rain